Weather Roundup
Issued by NWS Chicago, IL

Home | Current Version | Previous Version | Text Only | Print | Product List | Glossary Off
Versions: 1 2 3 4 5 6 7 8 9 10 11 12 13 14 15 16 17 18 19 20 21 22 23 24 25 26 27 28 29 30 31 32 33 34 35 36 37 38 39 40 41 42 43 44 45 46 47 48 49 50

911
NZUS59 KLOT 220609
HRRLOT

CHICAGO AREA WEATHER ROUNDUP
NATIONAL WEATHER SERVICE CHICAGO/ROMEOVILLE IL
100 AM CDT SAT JUL 22 2017

NOTE: "FAIR" INDICATES FEW OR NO CLOUDS BELOW 12,000 FEET WITH NO
SIGNIFICANT WEATHER AND/OR OBSTRUCTIONS TO VISIBILITY.

* THESE STATIONS ARE NOT UNDER NWS QUALITY CONTROL. THEY ALSO MAY NOT
  REPORT WEATHER SUCH AS PRECIPITATION OR FOG.

ILZ005-006-012>014-019>023-220700-
NORTHEAST ILLINOIS

CITY           SKY/WX    TMP DP  RH WIND       PRES   REMARKS
OHARE          LGT RAIN  72  69  90 S8        29.83F
6HR MIN TEMP:  73; 6HR MAX TEMP:  80; 6HR PCP:  0.49;

MIDWAY         TSTM      74  72  93 S10       29.84F FOG
6HR MIN TEMP:  73; 6HR MAX TEMP:  83; 6HR PCP:  1.20;

AURORA         LGT RAIN  70  70 100 S6        29.85S
6HR MIN TEMP:  70; 6HR MAX TEMP:  81; 6HR PCP:  1.01;

LANSING*       RAIN      72  69  92 S8        29.86F
JOLIET*        CLOUDY    73  72  99 E7        29.86F
WAUKEGAN       CLOUDY    72  71  97 S5        29.84R
6HR MIN TEMP:  71; 6HR MAX TEMP:  74; 6HR PCP:  0.33;

DUPAGE AIRPORT LGT RAIN  71  71 100 S6        29.84S FOG
6HR MIN TEMP:  70; 6HR MAX TEMP:  80; 6HR PCP:  0.35;

WHEELING       LGT RAIN  73  73 100 S9        29.85R
6HR MIN TEMP:  73; 6HR MAX TEMP:  77; 6HR PCP:  0.46;

MORRIS*        CLOUDY    70  69  96 E13       29.81F
LEWIS AIRPORT* TSTM      71  68  91 S7        29.88R
NORTHERLY ISL    N/A     73  69  87 S10         N/A
$$

WIZ051-052-058>065-066-070>072-220700-
SOUTHEAST WISCONSIN

CITY           SKY/WX    TMP DP  RH WIND       PRES   REMARKS
MILWAUKEE      CLOUDY    70  67  90 N9        29.86R
6HR MIN TEMP:  66; 6HR MAX TEMP:  75; 6HR PCP:  0.29;

KENOSHA*       CLOUDY    73  71  93 CALM      29.84R
RACINE*        CLOUDY    72  71  97 SE7       29.87R
WAUKESHA       CLOUDY    63  59  88 NE6       29.88R
WEST BEND      LGT RAIN  63  63 100 E5        29.88S
$$

INZ001>003-010>013-019-020-220700-
NORTHWEST INDIANA

CITY           SKY/WX    TMP DP  RH WIND       PRES   REMARKS
GARY*          RAIN      74  72  95 S5        29.86F
6HR MIN TEMP:  73; 6HR MAX TEMP:  83; 6HR PCP:  0.99;

MICHIGAN CITY* NOT AVBL
RENSSELAER*    NOT AVBL
VALPARAISO     LGT RAIN  73  72  96 SE3       29.91F FOG
$$

LMZ740>746-220700-
SOUTHERN LAKE MICHIGAN

STATION/POSITION TIME  SKY/WX   TEMP WIND        PRES    VSBY
                                AIR  DIR/SP/G
                 (UTC)          (F)  (DEG/KT/KT) (MB)    (MI)
HARRISON CRIB    0540            74  190/ 18/ 19   N/A
BURNHAM HARBOR   0600            73                N/A
CALUMET HARBOR   0542                190/  6/ 11 1010.6F
BURNS HARBOR     0540            73  190/ 11/ 18 1011.5F
MICHIGAN CITY    0540            72  170/ 14/ 17   N/A
$$

ABBREVIATIONS USED IN REMARKS
   TC - TEMPERATURE IN CELSIUS
  WCI - WIND CHILL INDEX
   HX - HEAT INDEX
  VSB - VISIBILITY
$$




USA.gov is the U.S. government's official web portal to all federal, state and local government web resources and services.